Location: Friedrichshafen
(47.6598°N, 9.4819°E)
Time: 00:13:38
(UTC+02:00)

Envisat - Visible Passes

Search period start: 24 May 2018 00:00
Search period end: 03 June 2018 00:00
Orbit: 764 x 766 km, 98.2° (Epoch: 23 May)

Date Brightness Start Highest point End Pass type
(mag) Time Alt. Az. Time Alt. Az. Time Alt. Az.
25 May 5.4 21:47:15 10° SW 21:51:04 21° W 21:54:54 10° NW visible
27 May 5.8 22:14:51 10° WSW 22:16:59 12° W 22:19:07 10° WNW visible
30 May 5.6 22:02:39 10° SW 22:05:40 16° W 22:08:42 10° NW visible
02 Jun 5.5 21:50:45 10° SW 21:54:22 19° W 21:58:01 10° NW visible
